GW7176 Weather Reports


time (UTC)temp
C
wind
direction
speed
KPH
gust
KPH
rain 1hr
cm
rain 24hr
cm
rain mn
cm
humidity
%
barometer
mb
20260504081556 17 223 0.0 6.4 0.00 0.00 0.00 82 1016.2
20260504044551 18 183 1.6 9.7 0.00 0.00 0.00 76 1018.9
20260504043055 18 0 0.0 6.4 0.00 0.00 0.00 76 1019.1
20260504041547 18 0 0.0 0.0 0.00 0.00 0.00 75 1019.2
20260504040050 18 0 0.0 6.4 0.00 0.00 0.00 75 1019.4
20260504034555 18 0 0.0 4.8 0.00 0.00 0.00 74 1019.3
20260504033045 18 0 0.0 0.0 0.00 0.00 0.00 73 1019.1
20260504031546 19 0 0.0 0.0 0.00 0.00 0.00 73 1019.1
20260504030051 19 0 0.0 0.0 0.00 0.00 0.00 71 1019.2
20260504024553 20 0 0.0 3.2 0.00 0.00 0.00 70 1019.2
20260504023053 20 0 0.0 6.4 0.00 0.00 0.00 68 1018.8
20260504021554 20 0 0.0 6.4 0.00 0.00 0.00 67 1018.6
20260504020105 21 0 0.0 6.4 0.00 0.00 0.00 65 1018.6
20260504014548 21 0 0.0 8.0 0.00 0.00 0.00 64 1018.5
20260504013108 21 289 0.0 11.3 0.00 0.00 0.00 62 1018.3
20260504011553 22 155 1.6 12.9 0.00 0.00 0.00 61 1018.2
20260504010052 22 234 1.6 11.3 0.00 0.00 0.00 58 1018.0
20260504004551 23 205 1.6 17.7 0.00 0.00 0.00 52 1018.1
20260504003047 23 209 4.8 22.5 0.00 0.00 0.00 54 1018.2
20260504001550 24 263 4.8 16.1 0.00 0.00 0.00 53 1018.3
20260504000055 24 302 6.4 16.1 0.00 0.00 0.00 51 1018.4
20260503234553 25 232 6.4 14.5 0.00 0.00 0.00 49 1018.3
20260503233050 25 0 4.8 24.1 0.00 0.00 0.00 46 1018.1
20260503231552 25 178 1.6 12.9 0.00 0.00 0.00 46 1018.1
20260503230052 26 155 3.2 22.5 0.00 0.00 0.00 47 1018.3
20260503224558 26 175 4.8 19.3 0.00 0.00 0.00 47 1018.5
20260503223054 26 210 8.0 20.9 0.00 0.00 0.00 48 1018.5
20260503221604 26 290 3.2 16.1 0.00 0.00 0.00 46 1018.5
20260503220058 26 204 4.8 14.5 0.00 0.00 0.00 48 1018.6
20260503214550 26 280 4.8 12.9 0.00 0.00 0.00 45 1018.9
20260503213048 26 183 4.8 16.1 0.00 0.00 0.00 46 1019.5
20260503211552 27 227 4.8 12.9 0.00 0.00 0.00 44 1019.5
20260503210049 27 197 4.8 17.7 0.00 0.00 0.00 42 1019.5
20260503204606 27 186 1.6 17.7 0.00 0.00 0.00 42 1020.0
20260503203057 27 210 0.0 11.3 0.00 0.00 0.00 40 1020.1
20260503201553 26 265 3.2 12.9 0.00 0.00 0.00 44 1020.3
20260503200054 27 0 1.6 14.5 0.00 0.00 0.00 41 1020.6
20260503194609 27 283 1.6 14.5 0.00 0.00 0.00 40 1020.9
20260503193056 27 260 3.2 16.1 0.00 0.00 0.00 38 1021.1
20260503191609 26 286 1.6 17.7 0.00 0.00 0.00 38 1021.1
20260503190052 26 219 1.6 11.3 0.00 0.00 0.00 43 1021.3
20260503184551 26 0 0.0 8.0 0.00 0.00 0.00 39 1021.6
20260503183053 26 201 1.6 14.5 0.00 0.00 0.00 42 1022.0
20260503181554 25 120 1.6 12.9 0.00 0.00 0.00 42 1022.3
20260503180058 26 201 4.8 27.4 0.00 0.00 0.00 44 1022.6
20260503174554 25 0 3.2 12.9 0.00 0.00 0.00 42 1022.7
20260503173048 25 125 0.0 8.0 0.00 0.00 0.00 45 1022.8
20260503171549 25 0 3.2 12.9 0.00 0.00 0.00 42 1023.0